Time,TemperatureF,DewpointF,PressureIn,WindDirection,WindDirectionDegrees,WindSpeedMPH,WindSpeedGustMPH,Humidity,HourlyPrecipIn,Conditions,Clouds,dailyrainin,SoftwareType,DateUTC
2013-07-08 00:01:00,79.5,75.6,29.04,ESE,114,7.4,12.7,88,0.00,RA,FEW,0.00,WeatherDisplay:10.37,2013-07-08 05:01:00,
2013-07-08 00:06:00,79.5,75.6,29.04,SSE,168,8.9,10.4,88,0.00,RA,FEW,0.00,WeatherDisplay:10.37,2013-07-08 05:06:00,
2013-07-08 00:11:00,79.6,75.7,29.04,SSE,158,10.9,13.8,88,0.00,,FEW,0.00,WeatherDisplay:10.37,2013-07-08 05:11:00,
2013-07-08 00:16:00,79.6,75.7,29.04,South,175,7.5,9.2,88,0.00,,FEW,0.00,WeatherDisplay:10.37,2013-07-08 05:16:00,
2013-07-08 00:21:00,79.6,75.7,29.04,SE,128,8.4,12.7,88,0.00,,FEW,0.00,WeatherDisplay:10.37,2013-07-08 05:21:00,
2013-07-08 00:26:00,79.7,75.8,29.04,SE,135,8.8,11.5,88,0.00,,FEW,0.00,WeatherDisplay:10.37,2013-07-08 05:26:00,
2013-07-08 00:31:00,79.7,75.8,29.04,SSE,147,10.0,11.5,88,0.00,,FEW,0.00,WeatherDisplay:10.37,2013-07-08 05:31:00,
2013-07-08 00:36:00,79.7,75.5,29.04,SE,132,9.1,15.0,87,0.00,,FEW,0.00,WeatherDisplay:10.37,2013-07-08 05:36:00,
2013-07-08 00:41:00,79.6,75.4,29.04,SSE,161,10.7,12.7,87,0.00,,FEW,0.00,WeatherDisplay:10.37,2013-07-08 05:41:00,
2013-07-08 00:46:00,79.7,75.5,29.04,South,169,5.9,15.0,87,0.00,,FEW,0.00,WeatherDisplay:10.37,2013-07-08 05:46:00,
2013-07-08 00:51:00,79.6,75.4,29.04,SSE,164,5.7,8.1,87,0.00,,FEW,0.00,WeatherDisplay:10.37,2013-07-08 05:51:00,
2013-07-08 00:56:00,79.6,75.7,29.04,SE,130,7.6,12.7,88,0.00,,FEW,0.00,WeatherDisplay:10.37,2013-07-08 05:56:00,
2013-07-08 01:01:00,79.6,75.7,29.03,SSE,164,8.5,12.7,88,0.00,,FEW,0.00,WeatherDisplay:10.37,2013-07-08 06:01:00,
2013-07-08 01:06:00,79.5,75.6,29.03,SSW,197,10.1,11.5,88,0.00,,FEW,0.00,WeatherDisplay:10.37,2013-07-08 06:06:00,
2013-07-08 01:11:00,79.5,75.6,29.03,SSE,154,4.0,5.8,88,0.00,,FEW,0.00,WeatherDisplay:10.37,2013-07-08 06:11:00,
2013-07-08 01:16:00,79.6,75.7,29.03,SE,138,4.6,6.9,88,0.00,,FEW,0.00,WeatherDisplay:10.37,2013-07-08 06:16:00,
2013-07-08 01:21:00,79.6,75.7,29.03,SE,130,8.8,9.2,88,0.00,,FEW,0.00,WeatherDisplay:10.37,2013-07-08 06:21:00,
2013-07-08 01:26:00,79.6,75.7,29.02,ESE,114,4.7,8.1,88,0.00,,FEW,0.00,WeatherDisplay:10.37,2013-07-08 06:26:00,
2013-07-08 01:31:00,79.7,75.8,29.02,SE,128,4.4,5.8,88,0.00,,FEW,0.00,WeatherDisplay:10.37,2013-07-08 06:31:00,
2013-07-08 01:36:00,79.7,75.8,29.02,SSE,167,7.8,11.5,88,0.00,,FEW,0.00,WeatherDisplay:10.37,2013-07-08 06:36:00,
2013-07-08 01:41:00,79.8,75.9,29.02,SSE,165,4.9,5.8,88,0.00,,FEW,0.00,WeatherDisplay:10.37,2013-07-08 06:41:00,
2013-07-08 01:46:00,79.8,75.9,29.02,South,173,6.3,10.5,88,0.00,,FEW,0.00,WeatherDisplay:10.37,2013-07-08 06:46:00,
2013-07-08 01:51:00,79.8,75.6,29.02,South,173,6.1,11.5,87,0.00,,FEW,0.00,WeatherDisplay:10.37,2013-07-08 06:51:00,
2013-07-08 01:56:00,79.9,75.7,29.03,SSE,147,7.1,8.4,87,0.00,,FEW,0.00,WeatherDisplay:10.37,2013-07-08 06:56:00,
2013-07-08 02:01:00,79.8,75.6,29.02,SSE,147,4.5,8.1,87,0.00,,FEW,0.00,WeatherDisplay:10.37,2013-07-08 07:01:00,
2013-07-08 02:06:00,79.8,75.6,29.03,ESE,115,6.2,6.9,87,0.00,,FEW,0.00,WeatherDisplay:10.37,2013-07-08 07:06:00,
2013-07-08 02:11:00,79.9,76.0,29.03,ESE,112,9.6,11.5,88,0.00,,FEW,0.00,WeatherDisplay:10.37,2013-07-08 07:11:00,
2013-07-08 02:16:00,79.9,76.0,29.03,SE,133,6.8,9.2,88,0.00,,FEW,0.00,WeatherDisplay:10.37,2013-07-08 07:16:00,
2013-07-08 02:21:00,80.0,76.1,29.02,SSE,166,7.2,11.5,88,0.00,,FEW,0.00,WeatherDisplay:10.37,2013-07-08 07:21:00,
2013-07-08 02:26:00,80.0,76.1,29.03,South,169,9.5,13.8,88,0.00,,FEW,0.00,WeatherDisplay:10.37,2013-07-08 07:26:00,
2013-07-08 02:31:00,80.0,76.1,29.02,SSE,151,3.9,5.8,88,0.00,,FEW,0.00,WeatherDisplay:10.37,2013-07-08 07:31:00,
2013-07-08 02:36:00,79.9,76.0,29.02,SE,139,5.8,7.4,88,0.00,,FEW,0.00,WeatherDisplay:10.37,2013-07-08 07:36:00,
2013-07-08 02:41:00,80.0,76.1,29.02,ESE,122,5.3,7.4,88,0.00,,FEW,0.00,WeatherDisplay:10.37,2013-07-08 07:41:00,
2013-07-08 02:46:00,80.0,76.1,29.02,SE,130,5.1,6.9,88,0.00,,FEW,0.00,WeatherDisplay:10.37,2013-07-08 07:46:00,
2013-07-08 02:51:00,80.0,75.8,29.02,South,175,3.6,6.9,87,0.00,,FEW,0.00,WeatherDisplay:10.37,2013-07-08 07:51:00,
2013-07-08 02:56:00,80.0,75.8,29.02,SSE,149,5.8,6.9,87,0.00,,FEW,0.00,WeatherDisplay:10.37,2013-07-08 07:56:00,
2013-07-08 03:01:00,80.0,75.4,29.02,SSW,197,5.6,10.4,86,0.00,,FEW,0.00,WeatherDisplay:10.37,2013-07-08 08:01:00,
2013-07-08 03:06:00,80.1,75.5,29.03,South,177,5.6,9.2,86,0.00,,FEW,0.00,WeatherDisplay:10.37,2013-07-08 08:06:00,
2013-07-08 03:11:00,80.2,75.6,29.03,SE,135,5.5,8.1,86,0.00,,FEW,0.00,WeatherDisplay:10.37,2013-07-08 08:11:00,
2013-07-08 03:16:00,80.3,75.7,29.03,SSE,153,8.3,15.0,86,0.00,,FEW,0.00,WeatherDisplay:10.37,2013-07-08 08:16:00,
2013-07-08 03:21:00,80.3,75.7,29.03,SE,128,4.9,6.9,86,0.00,,FEW,0.00,WeatherDisplay:10.37,2013-07-08 08:21:00,
2013-07-08 03:26:00,80.3,76.1,29.03,ESE,114,5.0,10.4,87,0.00,,FEW,0.00,WeatherDisplay:10.37,2013-07-08 08:26:00,
2013-07-08 03:31:00,80.3,76.1,29.03,SSE,166,10.0,12.6,87,0.00,,FEW,0.00,WeatherDisplay:10.37,2013-07-08 08:31:00,
2013-07-08 03:36:00,80.4,76.2,29.03,SE,133,6.7,9.2,87,0.00,,FEW,0.00,WeatherDisplay:10.37,2013-07-08 08:36:00,
2013-07-08 03:41:00,80.4,76.2,29.03,SE,139,7.8,11.5,87,0.00,,FEW,0.00,WeatherDisplay:10.37,2013-07-08 08:41:00,
2013-07-08 03:46:00,80.4,76.2,29.03,SE,140,5.8,11.5,87,0.00,,FEW,0.00,WeatherDisplay:10.37,2013-07-08 08:46:00,
2013-07-08 03:51:00,80.4,76.5,29.03,SSE,168,5.5,8.1,88,0.00,,FEW,0.00,WeatherDisplay:10.37,2013-07-08 08:51:00,
2013-07-08 03:56:00,80.4,76.5,29.03,South,178,7.0,9.2,88,0.00,,FEW,0.00,WeatherDisplay:10.37,2013-07-08 08:56:00,
2013-07-08 04:01:00,80.5,76.6,29.03,ESE,112,3.9,10.4,88,0.00,,FEW,0.00,WeatherDisplay:10.37,2013-07-08 09:01:00,
2013-07-08 04:06:00,80.5,77.0,29.03,SE,130,1.1,4.2,89,0.00,,FEW,0.00,WeatherDisplay:10.37,2013-07-08 09:06:00,
2013-07-08 04:11:00,80.4,76.9,29.03,SE,135,5.0,9.2,89,0.00,,FEW,0.00,WeatherDisplay:10.37,2013-07-08 09:11:00,
2013-07-08 04:16:00,80.4,76.9,29.03,SSE,157,8.0,8.1,89,0.00,,FEW,0.00,WeatherDisplay:10.37,2013-07-08 09:16:00,
2013-07-08 04:21:00,80.5,77.0,29.03,SSE,147,7.6,11.5,89,0.00,,FEW,0.00,WeatherDisplay:10.37,2013-07-08 09:21:00,
2013-07-08 04:26:00,80.5,77.0,29.03,SW,220,3.4,5.8,89,0.00,,FEW,0.00,WeatherDisplay:10.37,2013-07-08 09:26:00,
2013-07-08 04:31:00,80.4,76.9,29.03,SSE,166,6.7,11.5,89,0.00,,FEW,0.00,WeatherDisplay:10.37,2013-07-08 09:31:00,
2013-07-08 04:36:00,80.5,77.0,29.03,South,186,3.5,4.6,89,0.00,,FEW,0.00,WeatherDisplay:10.37,2013-07-08 09:36:00,
2013-07-08 04:41:00,80.4,76.9,29.03,SE,135,8.4,11.5,89,0.00,,FEW,0.00,WeatherDisplay:10.37,2013-07-08 09:41:00,
2013-07-08 04:46:00,80.4,76.9,29.03,South,189,4.2,8.1,89,0.00,,FEW,0.00,WeatherDisplay:10.37,2013-07-08 09:46:00,
2013-07-08 04:51:00,80.4,77.2,29.03,SSE,151,3.3,8.1,90,0.00,,FEW,0.00,WeatherDisplay:10.37,2013-07-08 09:51:00,
2013-07-08 04:56:00,80.4,77.2,29.03,WSW,237,6.1,9.2,90,0.00,,FEW,0.00,WeatherDisplay:10.37,2013-07-08 09:56:00,
2013-07-08 05:01:00,80.4,77.2,29.03,SSE,152,2.9,5.8,90,0.00,,FEW,0.00,WeatherDisplay:10.37,2013-07-08 10:01:00,
2013-07-08 05:06:00,80.3,77.1,29.04,South,177,6.7,9.2,90,0.00,,FEW,0.00,WeatherDisplay:10.37,2013-07-08 10:06:00,
2013-07-08 05:11:00,80.4,77.2,29.03,South,188,3.5,5.8,90,0.00,,FEW,0.00,WeatherDisplay:10.37,2013-07-08 10:11:00,
2013-07-08 05:16:00,80.4,77.2,29.04,SSE,165,2.7,5.2,90,0.00,,FEW,0.00,WeatherDisplay:10.37,2013-07-08 10:16:00,
2013-07-08 05:21:00,80.4,77.2,29.04,SSE,154,3.7,5.8,90,0.00,,FEW,0.00,WeatherDisplay:10.37,2013-07-08 10:21:00,
2013-07-08 05:26:00,80.4,77.2,29.04,SE,126,5.1,6.9,90,0.00,,FEW,0.00,WeatherDisplay:10.37,2013-07-08 10:26:00,
2013-07-08 05:31:00,80.5,77.3,29.04,SSE,162,3.5,5.8,90,0.00,,FEW,0.00,WeatherDisplay:10.37,2013-07-08 10:31:00,
2013-07-08 05:36:00,80.4,77.2,29.04,South,172,3.4,4.6,90,0.00,,FEW,0.00,WeatherDisplay:10.37,2013-07-08 10:36:00,
2013-07-08 05:41:00,80.4,77.2,29.04,SW,232,2.5,8.1,90,0.00,,FEW,0.00,WeatherDisplay:10.37,2013-07-08 10:41:00,
2013-07-08 05:46:00,80.4,77.2,29.04,SW,223,1.7,4.6,90,0.00,,FEW,0.00,WeatherDisplay:10.37,2013-07-08 10:46:00,
2013-07-08 05:51:00,80.3,77.1,29.04,SSE,151,2.1,3.5,90,0.00,,FEW,0.00,WeatherDisplay:10.37,2013-07-08 10:51:00,
2013-07-08 05:56:00,80.1,76.9,29.04,SSW,192,3.0,4.6,90,0.00,,FEW,0.00,WeatherDisplay:10.37,2013-07-08 10:56:00,
2013-07-08 06:01:00,80.0,76.8,29.04,South,190,1.5,5.8,90,0.00,,FEW,0.00,WeatherDisplay:10.37,2013-07-08 11:01:00,
2013-07-08 06:06:00,79.9,76.7,29.04,SSE,149,0.7,4.2,90,0.00,,FEW,0.00,WeatherDisplay:10.37,2013-07-08 11:06:00,
2013-07-08 06:11:00,79.9,76.7,29.03,East,88,1.8,3.5,90,0.00,,FEW,0.00,WeatherDisplay:10.37,2013-07-08 11:11:00,
2013-07-08 06:16:00,79.9,76.7,29.03,SSE,163,1.4,4.6,90,0.00,,FEW,0.00,WeatherDisplay:10.37,2013-07-08 11:16:00,
2013-07-08 06:21:00,80.0,76.8,29.04,ESE,115,2.4,3.5,90,0.00,,FEW,0.00,WeatherDisplay:10.37,2013-07-08 11:21:00,
2013-07-08 06:26:00,80.0,76.8,29.04,SSE,158,1.8,6.3,90,0.00,,FEW,0.00,WeatherDisplay:10.37,2013-07-08 11:26:00,
2013-07-08 06:31:00,80.1,77.2,29.04,SSE,147,1.4,3.5,91,0.00,,FEW,0.00,WeatherDisplay:10.37,2013-07-08 11:31:00,
2013-07-08 06:36:00,80.1,77.2,29.04,South,178,0.4,1.2,91,0.00,,FEW,0.00,WeatherDisplay:10.37,2013-07-08 11:36:00,
2013-07-08 06:41:00,80.1,77.2,29.04,South,177,0.4,4.6,91,0.00,,FEW,0.00,WeatherDisplay:10.37,2013-07-08 11:41:00,
2013-07-08 06:46:00,80.1,77.2,29.04,ESE,119,3.2,4.6,91,0.00,,FEW,0.00,WeatherDisplay:10.37,2013-07-08 11:46:00,
2013-07-08 06:51:00,80.1,77.2,29.04,SSE,163,2.4,4.6,91,0.00,,FEW,0.00,WeatherDisplay:10.37,2013-07-08 11:51:00,
2013-07-08 06:56:00,80.2,77.3,29.04,South,173,3.3,5.8,91,0.00,,FEW,0.00,WeatherDisplay:10.37,2013-07-08 11:56:00,
2013-07-08 07:01:00,80.3,77.4,29.04,SE,139,1.8,4.6,91,0.00,,FEW,0.00,WeatherDisplay:10.37,2013-07-08 12:01:00,
2013-07-08 07:06:00,80.4,77.5,29.05,SSE,147,1.7,2.3,91,0.00,,FEW,0.00,WeatherDisplay:10.37,2013-07-08 12:06:00,
2013-07-08 07:11:00,80.4,77.5,29.05,SE,129,5.1,9.2,91,0.00,,FEW,0.00,WeatherDisplay:10.37,2013-07-08 12:11:00,
2013-07-08 07:16:00,80.5,77.3,29.05,SE,145,1.7,6.9,90,0.00,,FEW,0.00,WeatherDisplay:10.37,2013-07-08 12:16:00,
2013-07-08 07:21:00,80.6,77.4,29.05,SE,127,7.4,8.1,90,0.00,,FEW,0.00,WeatherDisplay:10.37,2013-07-08 12:21:00,
2013-07-08 07:26:00,80.7,77.2,29.05,SSE,156,5.2,5.8,89,0.00,,FEW,0.00,WeatherDisplay:10.37,2013-07-08 12:26:00,
2013-07-08 07:31:00,80.8,77.3,29.05,SE,125,3.1,4.6,89,0.00,,FEW,0.00,WeatherDisplay:10.37,2013-07-08 12:31:00,
2013-07-08 07:36:00,80.8,77.3,29.05,SE,146,5.5,6.3,89,0.00,,FEW,0.00,WeatherDisplay:10.37,2013-07-08 12:36:00,
2013-07-08 07:41:00,80.8,77.3,29.05,SE,132,5.9,8.1,89,0.00,,FEW,0.00,WeatherDisplay:10.37,2013-07-08 12:41:00,
2013-07-08 07:46:00,80.9,77.4,29.06,South,170,2.4,4.6,89,0.00,,FEW,0.00,WeatherDisplay:10.37,2013-07-08 12:46:00,
2013-07-08 07:51:00,80.9,77.4,29.06,SSE,156,4.1,6.9,89,0.00,,FEW,0.00,WeatherDisplay:10.37,2013-07-08 12:51:00,
2013-07-08 07:56:00,80.9,77.4,29.06,SSE,166,6.2,8.1,89,0.00,,FEW,0.00,WeatherDisplay:10.37,2013-07-08 12:56:00,
2013-07-08 08:01:00,80.9,77.0,29.06,SE,130,5.5,5.8,88,0.00,,FEW,0.00,WeatherDisplay:10.37,2013-07-08 13:01:00,
2013-07-08 08:06:00,81.0,77.1,29.06,ESE,116,6.0,8.1,88,0.00,,FEW,0.00,WeatherDisplay:10.37,2013-07-08 13:06:00,
2013-07-08 08:11:00,81.0,77.1,29.07,East,81,3.6,5.8,88,0.00,,FEW,0.00,WeatherDisplay:10.37,2013-07-08 13:11:00,
2013-07-08 08:16:00,81.0,77.1,29.07,ENE,78,1.7,5.8,88,0.00,,FEW,0.00,WeatherDisplay:10.37,2013-07-08 13:16:00,
2013-07-08 08:21:00,81.1,76.9,29.07,SSE,151,4.1,6.3,87,0.00,,FEW,0.00,WeatherDisplay:10.37,2013-07-08 13:21:00,
2013-07-08 08:26:00,81.1,76.9,29.07,SSE,152,5.4,8.1,87,0.00,,FEW,0.00,WeatherDisplay:10.37,2013-07-08 13:26:00,
2013-07-08 08:31:00,81.2,76.6,29.08,South,169,2.7,8.1,86,0.00,,FEW,0.00,WeatherDisplay:10.37,2013-07-08 13:31:00,
2013-07-08 08:36:00,81.3,76.7,29.08,ESE,114,2.2,5.8,86,0.00,,FEW,0.00,WeatherDisplay:10.37,2013-07-08 13:36:00,
2013-07-08 08:41:00,81.4,76.8,29.08,ENE,73,7.9,7.9,86,0.00,,FEW,0.00,WeatherDisplay:10.37,2013-07-08 13:41:00,
2013-07-08 08:46:00,81.4,76.8,29.08,SE,128,3.3,8.1,86,0.00,,FEW,0.00,WeatherDisplay:10.37,2013-07-08 13:46:00,
2013-07-08 08:51:00,81.5,76.9,29.08,SSE,161,6.7,6.9,86,0.00,,FEW,0.00,WeatherDisplay:10.37,2013-07-08 13:51:00,
2013-07-08 08:56:00,81.6,76.6,29.08,SE,146,5.0,5.8,85,0.00,,FEW,0.00,WeatherDisplay:10.37,2013-07-08 13:56:00,
2013-07-08 09:01:00,81.6,76.6,29.08,East,94,6.8,10.4,85,0.00,,FEW,0.00,WeatherDisplay:10.37,2013-07-08 14:01:00,
2013-07-08 09:06:00,81.7,76.4,29.09,ESE,110,8.9,11.5,84,0.00,,FEW,0.00,WeatherDisplay:10.37,2013-07-08 14:06:00,
2013-07-08 09:11:00,81.7,76.0,29.09,SE,144,9.1,13.8,83,0.00,,FEW,0.00,WeatherDisplay:10.37,2013-07-08 14:11:00,
2013-07-08 09:16:00,81.8,76.1,29.09,SSE,152,7.5,17.3,83,0.00,,FEW,0.00,WeatherDisplay:10.37,2013-07-08 14:16:00,
2013-07-08 09:21:00,81.9,76.6,29.10,SE,140,4.7,5.8,84,0.00,,FEW,0.00,WeatherDisplay:10.37,2013-07-08 14:21:00,
2013-07-08 09:26:00,82.0,76.7,29.10,South,173,5.5,6.9,84,0.00,,FEW,0.00,WeatherDisplay:10.37,2013-07-08 14:26:00,
2013-07-08 09:31:00,82.1,76.8,29.10,SE,135,4.2,5.8,84,0.00,,FEW,0.00,WeatherDisplay:10.37,2013-07-08 14:31:00,
2013-07-08 09:36:00,82.2,76.9,29.10,SSE,161,4.0,5.8,84,0.00,,FEW,0.00,WeatherDisplay:10.37,2013-07-08 14:36:00,
2013-07-08 09:41:00,82.3,76.6,29.10,SSE,165,6.8,8.1,83,0.00,,FEW,0.00,WeatherDisplay:10.37,2013-07-08 14:41:00,
2013-07-08 09:46:00,82.5,76.8,29.10,SSE,147,7.6,10.4,83,0.00,,FEW,0.00,WeatherDisplay:10.37,2013-07-08 14:46:00,
2013-07-08 09:51:00,82.6,76.5,29.10,SSW,193,8.1,10.4,82,0.00,,FEW,0.00,WeatherDisplay:10.37,2013-07-08 14:51:00,
2013-07-08 09:56:00,82.8,76.7,29.10,SE,135,6.0,9.2,82,0.00,,FEW,0.00,WeatherDisplay:10.37,2013-07-08 14:56:00,
2013-07-08 10:01:00,83.0,76.6,29.10,SW,217,8.1,11.5,81,0.00,,FEW,0.00,WeatherDisplay:10.37,2013-07-08 15:01:00,
2013-07-08 10:06:00,83.1,76.3,29.11,SE,142,7.6,10.4,80,0.00,,FEW,0.00,WeatherDisplay:10.37,2013-07-08 15:06:00,
2013-07-08 10:11:00,83.2,76.4,29.11,SSE,163,3.7,9.2,80,0.00,,FEW,0.00,WeatherDisplay:10.37,2013-07-08 15:11:00,
2013-07-08 10:16:00,83.6,76.4,29.11,SW,234,5.3,9.2,79,0.00,,FEW,0.00,WeatherDisplay:10.37,2013-07-08 15:16:00,
2013-07-08 10:21:00,84.0,76.8,29.11,SE,137,7.8,8.1,79,0.00,,FEW,0.00,WeatherDisplay:10.37,2013-07-08 15:21:00,
2013-07-08 10:26:00,84.0,76.0,29.11,SE,130,6.4,10.4,77,0.00,,FEW,0.00,WeatherDisplay:10.37,2013-07-08 15:26:00,
2013-07-08 10:31:00,84.0,76.4,29.11,SSE,158,6.3,8.1,78,0.00,,FEW,0.00,WeatherDisplay:10.37,2013-07-08 15:31:00,
2013-07-08 10:36:00,84.0,75.6,29.11,ESE,116,9.3,9.3,76,0.00,,FEW,0.00,WeatherDisplay:10.37,2013-07-08 15:36:00,
2013-07-08 10:41:00,84.2,76.2,29.11,South,175,7.9,12.7,77,0.00,,FEW,0.00,WeatherDisplay:10.37,2013-07-08 15:41:00,
2013-07-08 10:46:00,84.2,76.2,29.12,ESE,111,10.0,11.5,77,0.00,,FEW,0.00,WeatherDisplay:10.37,2013-07-08 15:46:00,
2013-07-08 10:51:00,84.1,76.1,29.12,SSW,213,5.7,8.1,77,0.00,,FEW,0.00,WeatherDisplay:10.37,2013-07-08 15:51:00,
2013-07-08 10:56:00,84.4,76.4,29.12,SE,128,6.5,15.0,77,0.00,,FEW,0.00,WeatherDisplay:10.37,2013-07-08 15:56:00,
2013-07-08 11:01:00,84.4,76.8,29.12,SE,143,4.5,8.1,78,0.00,,FEW,0.00,WeatherDisplay:10.37,2013-07-08 16:01:00,
2013-07-08 11:06:00,84.8,77.2,29.12,SE,134,4.1,6.9,78,0.00,,FEW,0.00,WeatherDisplay:10.37,2013-07-08 16:06:00,
2013-07-08 11:11:00,84.5,76.9,29.12,South,180,5.8,10.4,78,0.00,,FEW,0.00,WeatherDisplay:10.37,2013-07-08 16:11:00,
2013-07-08 11:16:00,84.4,77.2,29.12,South,185,5.1,6.9,79,0.00,,FEW,0.00,WeatherDisplay:10.37,2013-07-08 16:16:00,
2013-07-08 11:21:00,84.8,77.6,29.13,SSE,164,6.0,9.5,79,0.00,,FEW,0.00,WeatherDisplay:10.37,2013-07-08 16:21:00,
2013-07-08 11:26:00,84.7,77.1,29.13,ESE,122,6.9,11.5,78,0.00,,FEW,0.00,WeatherDisplay:10.37,2013-07-08 16:26:00,
2013-07-08 11:31:00,84.9,77.3,29.13,ESE,105,5.2,8.1,78,0.00,,FEW,0.00,WeatherDisplay:10.37,2013-07-08 16:31:00,
2013-07-08 11:36:00,84.6,77.0,29.13,SSE,155,5.8,9.5,78,0.00,,FEW,0.00,WeatherDisplay:10.37,2013-07-08 16:36:00,
2013-07-08 11:41:00,84.4,76.8,29.13,East,90,5.6,6.9,78,0.00,,FEW,0.00,WeatherDisplay:10.37,2013-07-08 16:41:00,
2013-07-08 11:46:00,84.2,77.0,29.13,SE,138,5.7,9.2,79,0.00,,FEW,0.00,WeatherDisplay:10.37,2013-07-08 16:46:00,
2013-07-08 11:51:00,84.4,77.2,29.13,SE,139,4.3,8.1,79,0.00,,FEW,0.00,WeatherDisplay:10.37,2013-07-08 16:51:00,
2013-07-08 11:56:00,84.6,77.4,29.13,ESE,106,4.1,9.2,79,0.00,,FEW,0.00,WeatherDisplay:10.37,2013-07-08 16:56:00,
2013-07-08 12:01:00,84.6,77.4,29.13,East,98,5.5,6.9,79,0.00,,FEW,0.00,WeatherDisplay:10.37,2013-07-08 17:01:00,
2013-07-08 12:06:00,84.9,77.7,29.13,SSE,150,7.8,10.5,79,0.00,,FEW,0.00,WeatherDisplay:10.37,2013-07-08 17:06:00,
2013-07-08 12:12:00,85.0,77.4,29.13,East,99,5.9,9.5,78,0.00,,FEW,0.00,WeatherDisplay:10.37,2013-07-08 17:12:00,
2013-07-08 12:17:00,85.0,77.8,29.12,SE,136,6.2,9.2,79,0.00,,FEW,0.00,WeatherDisplay:10.37,2013-07-08 17:17:00,
2013-07-08 12:23:00,85.2,77.6,29.12,South,171,7.3,13.8,78,0.00,,FEW,0.00,WeatherDisplay:10.37,2013-07-08 17:23:00,
2013-07-08 12:28:00,85.5,77.5,29.12,East,99,8.3,12.7,77,0.00,,FEW,0.00,WeatherDisplay:10.37,2013-07-08 17:28:00,
2013-07-08 12:33:00,85.6,77.6,29.12,ESE,121,7.1,9.2,77,0.00,,FEW,0.00,WeatherDisplay:10.37,2013-07-08 17:33:00,
2013-07-08 12:39:00,85.4,77.8,29.12,SSE,168,3.1,11.5,78,0.00,,FEW,0.00,WeatherDisplay:10.37,2013-07-08 17:39:00,
2013-07-08 12:44:00,85.4,77.4,29.12,East,94,6.9,12.6,77,0.00,,FEW,0.00,WeatherDisplay:10.37,2013-07-08 17:44:00,
2013-07-08 12:49:00,85.0,77.4,29.12,SSE,165,8.1,13.8,78,0.00,,FEW,0.00,WeatherDisplay:10.37,2013-07-08 17:49:00,
2013-07-08 12:54:00,85.2,77.6,29.12,South,169,7.3,13.8,78,0.00,,FEW,0.00,WeatherDisplay:10.37,2013-07-08 17:54:00,
2013-07-08 12:59:00,85.8,78.5,29.12,East,99,5.8,8.4,79,0.00,,FEW,0.00,WeatherDisplay:10.37,2013-07-08 17:59:00,
2013-07-08 13:04:00,86.3,77.8,29.12,SSE,148,9.2,12.6,76,0.00,,FEW,0.00,WeatherDisplay:10.37,2013-07-08 18:04:00,
2013-07-08 13:10:00,86.2,77.7,29.11,South,187,7.6,11.5,76,0.00,,FEW,0.00,WeatherDisplay:10.37,2013-07-08 18:10:00,
2013-07-08 13:15:00,86.3,77.4,29.11,SSE,165,7.8,13.7,75,0.00,,FEW,0.00,WeatherDisplay:10.37,2013-07-08 18:15:00,
2013-07-08 13:21:00,86.3,78.2,29.11,ESE,105,8.3,12.7,77,0.00,,FEW,0.00,WeatherDisplay:10.37,2013-07-08 18:21:00,
2013-07-08 13:26:00,86.3,78.2,29.11,SSE,150,4.1,11.5,77,0.00,,FEW,0.00,WeatherDisplay:10.37,2013-07-08 18:26:00,
2013-07-08 13:32:00,87.0,78.1,29.11,SE,132,6.8,11.5,75,0.00,,FEW,0.00,WeatherDisplay:10.37,2013-07-08 18:32:00,
2013-07-08 13:37:00,86.7,78.2,29.11,SSE,152,6.1,11.5,76,0.00,,FEW,0.00,WeatherDisplay:10.37,2013-07-08 18:37:00,
2013-07-08 13:42:00,87.3,78.0,29.10,East,87,7.0,11.5,74,0.00,,FEW,0.00,WeatherDisplay:10.37,2013-07-08 18:42:00,
2013-07-08 13:48:00,86.8,77.5,29.10,SSE,152,8.4,15.0,74,0.00,,FEW,0.00,WeatherDisplay:10.37,2013-07-08 18:48:00,
2013-07-08 13:53:00,86.4,77.5,29.10,SSE,150,7.0,13.8,75,0.00,,FEW,0.00,WeatherDisplay:10.37,2013-07-08 18:53:00,
2013-07-08 13:59:00,86.9,77.6,29.10,SSE,147,8.9,11.5,74,0.00,,FEW,0.00,WeatherDisplay:10.37,2013-07-08 18:59:00,
2013-07-08 14:04:00,86.7,77.4,29.10,ESE,104,9.2,13.8,74,0.00,,FEW,0.00,WeatherDisplay:10.37,2013-07-08 19:04:00,
2013-07-08 14:09:00,87.0,77.3,29.10,South,170,7.2,12.7,73,0.00,,FEW,0.00,WeatherDisplay:10.37,2013-07-08 19:09:00,
2013-07-08 14:14:00,87.0,77.3,29.09,South,175,10.2,11.5,73,0.00,,FEW,0.00,WeatherDisplay:10.37,2013-07-08 19:14:00,
2013-07-08 14:19:00,87.1,77.0,29.10,SSE,147,9.6,11.5,72,0.00,,FEW,0.00,WeatherDisplay:10.37,2013-07-08 19:19:00,
2013-07-08 14:25:00,87.0,77.3,29.09,ESE,106,8.7,15.7,73,0.00,,FEW,0.00,WeatherDisplay:10.37,2013-07-08 19:25:00,
2013-07-08 14:31:00,87.0,77.7,29.09,NE,42,10.8,11.5,74,0.00,,FEW,0.00,WeatherDisplay:10.37,2013-07-08 19:31:00,
2013-07-08 14:36:00,86.7,77.4,29.08,ESE,118,7.2,17.3,74,0.00,,FEW,0.00,WeatherDisplay:10.37,2013-07-08 19:36:00,
2013-07-08 14:41:00,86.8,77.5,29.09,ESE,117,7.5,11.5,74,0.00,,FEW,0.00,WeatherDisplay:10.37,2013-07-08 19:41:00,
2013-07-08 14:47:00,87.1,77.0,29.09,SSE,161,8.5,13.8,72,0.00,,FEW,0.00,WeatherDisplay:10.37,2013-07-08 19:47:00,
2013-07-08 14:52:00,87.2,77.1,29.09,SSE,156,9.5,15.0,72,0.00,,FEW,0.00,WeatherDisplay:10.37,2013-07-08 19:52:00,
2013-07-08 14:57:00,87.2,77.5,29.08,SE,140,5.7,11.5,73,0.00,,FEW,0.00,WeatherDisplay:10.37,2013-07-08 19:57:00,
2013-07-08 15:02:00,86.9,77.6,29.08,ESE,120,12.6,16.1,74,0.00,,FEW,0.00,WeatherDisplay:10.37,2013-07-08 20:02:00,
2013-07-08 15:07:00,87.1,77.8,29.08,SSE,156,5.9,9.2,74,0.00,,FEW,0.00,WeatherDisplay:10.37,2013-07-08 20:07:00,
2013-07-08 15:12:00,87.2,77.5,29.08,SE,125,10.5,12.6,73,0.00,,FEW,0.00,WeatherDisplay:10.37,2013-07-08 20:12:00,
2013-07-08 15:18:00,87.0,77.7,29.08,SSE,147,9.9,16.1,74,0.00,,FEW,0.00,WeatherDisplay:10.37,2013-07-08 20:18:00,
2013-07-08 15:23:00,86.6,77.3,29.08,ESE,116,8.6,15.0,74,0.00,,FEW,0.00,WeatherDisplay:10.37,2013-07-08 20:23:00,
2013-07-08 15:28:00,87.1,77.8,29.08,SSE,150,9.8,12.7,74,0.00,,FEW,0.00,WeatherDisplay:10.37,2013-07-08 20:28:00,
2013-07-08 15:33:00,87.2,77.9,29.07,ESE,116,6.8,12.7,74,0.00,,FEW,0.00,WeatherDisplay:10.37,2013-07-08 20:33:00,
2013-07-08 15:39:00,86.9,77.6,29.07,SSE,166,9.0,12.7,74,0.00,,FEW,0.00,WeatherDisplay:10.37,2013-07-08 20:39:00,
2013-07-08 15:44:00,86.8,77.1,29.07,SE,145,9.1,16.1,73,0.00,,FEW,0.00,WeatherDisplay:10.37,2013-07-08 20:44:00,
2013-07-08 15:50:00,86.8,77.1,29.07,East,100,8.5,12.7,73,0.00,,FEW,0.00,WeatherDisplay:10.37,2013-07-08 20:50:00,
2013-07-08 15:55:00,86.8,76.7,29.07,SE,129,11.2,15.0,72,0.00,,FEW,0.00,WeatherDisplay:10.37,2013-07-08 20:55:00,
2013-07-08 16:00:00,86.8,77.9,29.07,South,171,6.8,11.5,75,0.00,,FEW,0.00,WeatherDisplay:10.37,2013-07-08 21:00:00,
2013-07-08 16:06:00,86.6,76.9,29.07,South,182,9.7,15.0,73,0.00,,FEW,0.00,WeatherDisplay:10.37,2013-07-08 21:06:00,
2013-07-08 16:11:00,86.3,77.0,29.07,SSE,148,10.3,15.0,74,0.00,,FEW,0.00,WeatherDisplay:10.37,2013-07-08 21:11:00,
2013-07-08 16:17:00,86.2,77.3,29.06,SSW,210,7.3,11.5,75,0.00,,FEW,0.00,WeatherDisplay:10.37,2013-07-08 21:17:00,
2013-07-08 16:22:00,86.3,77.4,29.06,East,83,8.6,14.7,75,0.00,,FEW,0.00,WeatherDisplay:10.37,2013-07-08 21:22:00,
2013-07-08 16:30:00,86.2,77.3,29.06,SW,231,8.1,13.8,75,0.00,,FEW,0.00,WeatherDisplay:10.37,2013-07-08 21:30:00,
2013-07-08 16:35:00,86.1,77.6,29.06,SE,132,7.4,12.7,76,0.00,,FEW,0.00,WeatherDisplay:10.37,2013-07-08 21:35:00,
2013-07-08 16:41:00,86.6,78.1,29.06,SSW,204,6.6,10.4,76,0.00,,FEW,0.00,WeatherDisplay:10.37,2013-07-08 21:41:00,
2013-07-08 16:46:00,86.7,77.0,29.06,SSE,166,7.1,13.8,73,0.00,,FEW,0.00,WeatherDisplay:10.37,2013-07-08 21:46:00,
2013-07-08 16:51:00,86.5,78.0,29.06,ESE,122,5.8,11.5,76,0.00,,FEW,0.00,WeatherDisplay:10.37,2013-07-08 21:51:00,
2013-07-08 16:56:00,86.6,78.1,29.06,South,172,7.4,8.4,76,0.00,,FEW,0.00,WeatherDisplay:10.37,2013-07-08 21:56:00,
2013-07-08 17:02:00,86.1,77.6,29.06,SSE,168,9.9,11.5,76,0.00,,FEW,0.00,WeatherDisplay:10.37,2013-07-08 22:02:00,
2013-07-08 17:08:00,86.3,77.8,29.06,SE,129,7.6,10.5,76,0.00,,FEW,0.00,WeatherDisplay:10.37,2013-07-08 22:08:00,
2013-07-08 17:13:00,86.1,77.2,29.06,ESE,109,8.5,13.8,75,0.00,,FEW,0.00,WeatherDisplay:10.37,2013-07-08 22:13:00,
2013-07-08 17:19:00,85.9,77.8,29.06,SE,130,6.1,12.7,77,0.00,,FEW,0.00,WeatherDisplay:10.37,2013-07-08 22:19:00,
2013-07-08 17:24:00,85.8,77.4,29.06,SE,141,7.0,15.0,76,0.00,,FEW,0.00,WeatherDisplay:10.37,2013-07-08 22:24:00,
2013-07-08 17:29:00,85.7,77.3,29.06,East,94,9.4,11.5,76,0.00,,FEW,0.00,WeatherDisplay:10.37,2013-07-08 22:29:00,
2013-07-08 17:34:00,85.7,78.0,29.06,ESE,121,5.7,10.4,78,0.00,,FEW,0.00,WeatherDisplay:10.37,2013-07-08 22:34:00,
2013-07-08 17:39:00,86.0,77.9,29.06,SE,144,7.4,17.3,77,0.00,,FEW,0.00,WeatherDisplay:10.37,2013-07-08 22:39:00,
2013-07-08 17:45:00,86.0,77.9,29.06,SE,125,7.6,17.3,77,0.00,,FEW,0.00,WeatherDisplay:10.37,2013-07-08 22:45:00,
2013-07-08 17:50:00,85.6,77.6,29.06,SE,142,8.8,15.0,77,0.00,,FEW,0.00,WeatherDisplay:10.37,2013-07-08 22:50:00,
2013-07-08 17:56:00,85.3,77.3,29.06,SE,128,9.1,12.7,77,0.00,,FEW,0.00,WeatherDisplay:10.37,2013-07-08 22:56:00,
2013-07-08 18:02:00,85.4,77.8,29.06,ESE,111,6.7,16.1,78,0.00,,FEW,0.00,WeatherDisplay:10.37,2013-07-08 23:02:00,
2013-07-08 18:08:00,85.3,77.3,29.06,SE,132,10.2,13.8,77,0.00,,FEW,0.00,WeatherDisplay:10.37,2013-07-08 23:08:00,
2013-07-08 18:13:00,85.0,77.8,29.06,ESE,118,8.4,11.5,79,0.00,,FEW,0.00,WeatherDisplay:10.37,2013-07-08 23:13:00,
2013-07-08 18:18:00,84.5,76.9,29.05,ESE,106,9.0,11.5,78,0.00,,FEW,0.00,WeatherDisplay:10.37,2013-07-08 23:18:00,
2013-07-08 18:25:00,84.3,77.5,29.05,SSE,148,5.1,10.5,80,0.00,,FEW,0.00,WeatherDisplay:10.37,2013-07-08 23:25:00,
2013-07-08 18:30:00,84.0,76.8,29.05,SSE,151,8.9,13.7,79,0.00,,FEW,0.00,WeatherDisplay:10.37,2013-07-08 23:30:00,
2013-07-08 18:36:00,84.1,76.9,29.05,SE,141,5.1,11.5,79,0.00,,FEW,0.00,WeatherDisplay:10.37,2013-07-08 23:36:00,
2013-07-08 18:41:00,84.0,76.8,29.05,SSE,168,5.5,11.5,79,0.00,,FEW,0.00,WeatherDisplay:10.37,2013-07-08 23:41:00,
2013-07-08 18:46:00,83.7,76.9,29.06,SE,126,8.4,11.5,80,0.00,,FEW,0.00,WeatherDisplay:10.37,2013-07-08 23:46:00,
2013-07-08 18:52:00,83.6,76.4,29.06,SE,132,9.9,14.7,79,0.00,,FEW,0.00,WeatherDisplay:10.37,2013-07-08 23:52:00,
2013-07-08 18:57:00,83.5,76.3,29.06,East,83,6.0,6.3,79,0.00,,FEW,0.00,WeatherDisplay:10.37,2013-07-08 23:57:00,
2013-07-08 19:03:00,83.5,77.1,29.06,SSE,165,2.7,12.7,81,0.00,,FEW,0.00,WeatherDisplay:10.37,2013-07-09 00:03:00,
2013-07-08 19:08:00,83.3,76.5,29.06,SE,135,9.0,10.4,80,0.00,,FEW,0.00,WeatherDisplay:10.37,2013-07-09 00:08:00,
2013-07-08 19:14:00,83.0,76.2,29.07,SSE,160,5.5,11.5,80,0.00,,FEW,0.00,WeatherDisplay:10.37,2013-07-09 00:14:00,
2013-07-08 19:19:00,83.1,77.0,29.06,ESE,123,6.2,8.4,82,0.00,,FEW,0.00,WeatherDisplay:10.37,2013-07-09 00:19:00,
2013-07-08 19:25:00,82.8,76.7,29.07,ESE,122,7.8,13.7,82,0.00,,FEW,0.00,WeatherDisplay:10.37,2013-07-09 00:25:00,
2013-07-08 19:30:00,82.7,77.0,29.07,SE,142,8.2,10.5,83,0.00,,FEW,0.00,WeatherDisplay:10.37,2013-07-09 00:30:00,
2013-07-08 19:35:00,82.5,76.8,29.07,ESE,112,5.4,10.4,83,0.00,,FEW,0.00,WeatherDisplay:10.37,2013-07-09 00:35:00,
2013-07-08 19:40:00,82.4,77.1,29.07,East,96,6.8,8.1,84,0.00,,FEW,0.00,WeatherDisplay:10.37,2013-07-09 00:40:00,
2013-07-08 19:46:00,82.3,77.0,29.07,ESE,108,6.1,9.5,84,0.00,,FEW,0.00,WeatherDisplay:10.37,2013-07-09 00:46:00,
2013-07-08 19:52:00,82.3,77.0,29.07,ESE,107,3.8,11.5,84,0.00,,FEW,0.00,WeatherDisplay:10.37,2013-07-09 00:52:00,
2013-07-08 19:57:00,82.2,77.2,29.08,ESE,120,5.5,9.2,85,0.00,,FEW,0.00,WeatherDisplay:10.37,2013-07-09 00:57:00,
2013-07-08 20:02:00,82.1,77.5,29.07,SE,124,8.2,11.5,86,0.00,,FEW,0.00,WeatherDisplay:10.37,2013-07-09 01:02:00,
2013-07-08 20:08:00,82.0,77.4,29.07,SE,132,5.6,8.1,86,0.00,,FEW,0.00,WeatherDisplay:10.37,2013-07-09 01:08:00,
2013-07-08 20:13:00,81.9,77.3,29.07,SE,125,5.9,12.7,86,0.00,,FEW,0.00,WeatherDisplay:10.37,2013-07-09 01:13:00,
2013-07-08 20:19:00,81.9,77.3,29.08,SE,137,5.1,11.5,86,0.00,,FEW,0.00,WeatherDisplay:10.37,2013-07-09 01:19:00,
2013-07-08 20:25:00,81.9,77.6,29.08,ESE,119,4.0,6.9,87,0.00,,FEW,0.00,WeatherDisplay:10.37,2013-07-09 01:25:00,
2013-07-08 20:30:00,81.8,77.5,29.08,ESE,106,9.1,13.8,87,0.00,,FEW,0.00,WeatherDisplay:10.37,2013-07-09 01:30:00,
2013-07-08 20:37:00,81.8,77.9,29.08,SE,144,6.5,11.5,88,0.00,,FEW,0.00,WeatherDisplay:10.37,2013-07-09 01:37:00,
2013-07-08 20:42:00,81.7,77.8,29.09,ESE,123,4.3,12.7,88,0.00,,FEW,0.00,WeatherDisplay:10.37,2013-07-09 01:42:00,
2013-07-08 20:49:00,81.6,77.4,29.09,South,173,7.1,15.0,87,0.00,,FEW,0.00,WeatherDisplay:10.37,2013-07-09 01:49:00,
2013-07-08 20:54:00,81.6,77.4,29.09,SSE,156,6.9,12.7,87,0.00,,FEW,0.00,WeatherDisplay:10.37,2013-07-09 01:54:00,
2013-07-08 21:00:00,81.6,77.7,29.09,SE,126,2.9,8.4,88,0.00,,FEW,0.00,WeatherDisplay:10.37,2013-07-09 02:00:00,
2013-07-08 21:06:00,81.6,77.7,29.09,ESE,121,7.6,9.5,88,0.00,,FEW,0.00,WeatherDisplay:10.37,2013-07-09 02:06:00,
2013-07-08 21:11:00,81.5,77.3,29.09,SE,137,7.5,11.5,87,0.00,,FEW,0.00,WeatherDisplay:10.37,2013-07-09 02:11:00,
2013-07-08 21:16:00,81.5,77.3,29.09,ENE,76,7.4,12.7,87,0.00,,FEW,0.00,WeatherDisplay:10.37,2013-07-09 02:16:00,
2013-07-08 21:22:00,81.5,77.6,29.10,ESE,122,5.4,10.4,88,0.00,,FEW,0.00,WeatherDisplay:10.37,2013-07-09 02:22:00,
2013-07-08 21:27:00,81.6,77.7,29.10,SE,138,7.2,12.7,88,0.00,,FEW,0.00,WeatherDisplay:10.37,2013-07-09 02:27:00,
2013-07-08 21:33:00,81.6,77.7,29.10,SE,133,6.2,10.4,88,0.00,,FEW,0.00,WeatherDisplay:10.37,2013-07-09 02:33:00,
2013-07-08 21:38:00,81.5,77.6,29.10,SSE,165,6.7,9.2,88,0.00,,FEW,0.00,WeatherDisplay:10.37,2013-07-09 02:38:00,
2013-07-08 21:43:00,81.5,77.6,29.10,South,176,6.3,10.5,88,0.00,,FEW,0.00,WeatherDisplay:10.37,2013-07-09 02:43:00,
2013-07-08 21:48:00,81.4,77.2,29.10,SSE,151,7.3,9.5,87,0.00,,FEW,0.00,WeatherDisplay:10.37,2013-07-09 02:48:00,
2013-07-08 21:54:00,81.4,77.5,29.11,WSW,239,6.7,11.5,88,0.00,,FEW,0.00,WeatherDisplay:10.37,2013-07-09 02:54:00,
2013-07-08 21:59:00,81.3,77.1,29.11,East,95,7.2,10.5,87,0.00,,FEW,0.00,WeatherDisplay:10.37,2013-07-09 02:59:00,
2013-07-08 22:05:00,81.4,77.2,29.11,SE,130,6.1,13.8,87,0.00,,FEW,0.00,WeatherDisplay:10.37,2013-07-09 03:05:00,
2013-07-08 22:10:00,81.4,77.5,29.11,ESE,123,2.9,5.8,88,0.00,,FEW,0.00,WeatherDisplay:10.37,2013-07-09 03:10:00,
2013-07-08 22:16:00,81.3,77.4,29.11,SE,140,5.8,8.1,88,0.00,,FEW,0.00,WeatherDisplay:10.37,2013-07-09 03:16:00,
2013-07-08 22:21:00,81.2,77.3,29.11,ESE,107,3.8,5.8,88,0.00,,FEW,0.00,WeatherDisplay:10.37,2013-07-09 03:21:00,
2013-07-08 22:26:00,81.2,77.3,29.11,SE,141,6.2,10.4,88,0.00,,FEW,0.00,WeatherDisplay:10.37,2013-07-09 03:26:00,
2013-07-08 22:32:00,81.1,77.2,29.12,ESE,115,5.1,8.4,88,0.00,,FEW,0.00,WeatherDisplay:10.37,2013-07-09 03:32:00,
2013-07-08 22:37:00,81.1,77.2,29.12,ESE,104,5.8,10.4,88,0.00,,FEW,0.00,WeatherDisplay:10.37,2013-07-09 03:37:00,
2013-07-08 22:43:00,81.1,77.2,29.12,SE,135,3.3,9.5,88,0.00,,FEW,0.00,WeatherDisplay:10.37,2013-07-09 03:43:00,
2013-07-08 22:48:00,81.1,77.2,29.12,SSE,151,4.4,6.3,88,0.00,,FEW,0.00,WeatherDisplay:10.37,2013-07-09 03:48:00,
2013-07-08 22:55:00,81.0,77.4,29.12,ESE,120,4.4,9.5,89,0.00,,FEW,0.00,WeatherDisplay:10.37,2013-07-09 03:55:00,
2013-07-08 23:01:00,81.0,77.4,29.13,South,175,2.8,8.4,89,0.00,,FEW,0.00,WeatherDisplay:10.37,2013-07-09 04:01:00,
2013-07-08 23:06:00,80.9,77.0,29.12,ESE,121,4.4,6.9,88,0.00,,FEW,0.00,WeatherDisplay:10.37,2013-07-09 04:06:00,
2013-07-08 23:11:00,80.9,77.0,29.12,East,97,7.7,8.4,88,0.00,,FEW,0.00,WeatherDisplay:10.37,2013-07-09 04:11:00,
2013-07-08 23:16:00,80.9,77.0,29.12,ESE,109,3.3,9.2,88,0.00,,FEW,0.00,WeatherDisplay:10.37,2013-07-09 04:16:00,
2013-07-08 23:21:00,80.9,77.0,29.12,ESE,107,5.6,10.5,88,0.00,,FEW,0.00,WeatherDisplay:10.37,2013-07-09 04:21:00,
2013-07-08 23:26:00,80.9,77.0,29.12,SSE,152,3.1,6.9,88,0.00,,FEW,0.00,WeatherDisplay:10.37,2013-07-09 04:26:00,
2013-07-08 23:31:00,80.9,77.0,29.12,ESE,115,2.5,9.2,88,0.00,,FEW,0.00,WeatherDisplay:10.37,2013-07-09 04:31:00,
2013-07-08 23:36:00,80.9,77.0,29.12,SSE,162,4.6,8.4,88,0.00,,FEW,0.00,WeatherDisplay:10.37,2013-07-09 04:36:00,
2013-07-08 23:41:00,80.9,77.0,29.13,East,94,3.0,8.1,88,0.00,,FEW,0.00,WeatherDisplay:10.37,2013-07-09 04:41:00,
2013-07-08 23:46:00,80.9,77.0,29.12,East,101,4.8,5.8,88,0.00,,FEW,0.00,WeatherDisplay:10.37,2013-07-09 04:46:00,
2013-07-08 23:51:00,80.8,76.9,29.12,South,182,4.6,5.8,88,0.00,,FEW,0.00,WeatherDisplay:10.37,2013-07-09 04:51:00,
2013-07-08 23:56:00,80.8,77.3,29.12,SE,132,3.4,8.1,89,0.00,,FEW,0.00,WeatherDisplay:10.37,2013-07-09 04:56:00,